This is the latest recevied weather packets stored in our database for station/object HP1CDW-11. If no packets are shown the sender has not sent any weather packets the latest 10 day(s).
| Time | Temp. | Humidity | Pressure | Rain* | Wind** | Luminosity | Snow |
|---|---|---|---|---|---|---|---|
| 1788213374 | 30.56° C | 44% | 1009.7 hPa | - | - | - | - |
| 1788212774 | 30.56° C | 43% | 1009.7 hPa | - | - | - | - |
| 1788212174 | 30° C | 44% | 1009.7 hPa | - | - | - | - |
| 1788211573 | 30.56° C | 42% | 1009.7 hPa | - | - | - | - |
| 1788210973 | 30.56° C | 42% | 1009.7 hPa | - | - | - | - |
| 1788210386 | 30.56° C | 42% | 1009.8 hPa | - | - | - | - |
| 1788209772 | 30.56° C | 42% | 1009.7 hPa | - | - | - | - |
| 1788209172 | 30.56° C | 42% | 1009.7 hPa | - | - | - | - |
| 1788208574 | 30.56° C | 41% | 1009.7 hPa | - | - | - | - |
| 1788207972 | 30.56° C | 41% | 1009.7 hPa | - | - | - | - |
| 1788207371 | 30.56° C | 42% | 1009.8 hPa | - | - | - | - |
| 1788206771 | 30.56° C | 42% | 1010 hPa | - | - | - | - |
| 1788206170 | 30.56° C | 42% | 1010.1 hPa | - | - | - | - |
| 1788205570 | 30.56° C | 42% | 1010.2 hPa | - | - | - | - |
| 1788204970 | 30.56° C | 43% | 1010.3 hPa | - | - | - | - |
| 1788204370 | 30.56° C | 44% | 1010.2 hPa | - | - | - | - |
| 1788203769 | 31.11° C | 48% | 1010.4 hPa | - | - | - | - |
| 1788203169 | 31.11° C | 53% | 1010.5 hPa | - | - | - | - |
| 1788202569 | 31.67° C | 58% | 1010.6 hPa | - | - | - | - |
| 1788201968 | 31.67° C | 59% | 1010.6 hPa | - | - | - | - |
| 1788201368 | 31.67° C | 59% | 1010.5 hPa | - | - | - | - |
| 1788200768 | 31.11° C | 59% | 1010.7 hPa | - | - | - | - |
| 1788200167 | 31.11° C | 59% | 1010.9 hPa | - | - | - | - |
| 1788199575 | 31.11° C | 58% | 1011 hPa | - | - | - | - |
| 1788198967 | 31.11° C | 58% | 1011.1 hPa | - | - | - | - |
* Rain since midnight (hover to see other rain measurements)
** Current wind speed in m/s (hover to see current wind gust speed)